Regional Weather Roundup
Issued by NWS Upton, NY

Current Version | Previous Version | Graphics & Text | Print | Product List | Glossary Off
Versions: 1 2 3 4 5 6 7 8 9 10 11 12 13 14 15 16 17 18 19 20 21 22 23 24 25 26 27

000
ASUS41 KOKX 270209
RWROKX

REGIONAL WEATHER ROUNDUP
NATIONAL WEATHER SERVICE NEW YORK NY
1000 PM EDT FRI MAY 26 2017

NOTE: "FAIR" INDICATES FEW OR NO CLOUDS BELOW 12,000 FEET WITH NO
SIGNIFICANT WEATHER AND/OR OBSTRUCTIONS TO VISIBILITY.

NYZ071-072-176-178-NJZ106-104-270300-
NEW YORK CITY METRO AREA

CITY           SKY/WX    TMP DP  RH WIND       PRES   REMARKS
Central Park   PTCLDY    68  52  56 VRB3      29.80R
Wall St Helipt CLOUDY    68  54  60 CALM      29.78R
Bronx Bot Gard   N/A     66  52  59 NW8       29.79R
LaGuardia APRT PTCLDY    68  52  56 NW16G25   29.76R
Kennedy INTL   PTCLDY    70  53  54 NW17      29.77R
Breezy Point     N/A     64 N/A N/A NW7         N/A
Newark/Liberty MOCLDY    70  54  56 NW13      29.77R
Teterboro      CLOUDY    68  53  58 NW12G18   29.77R
$$

NYZ177-179-078>081-270300-
LONG ISLAND NEW YORK

CITY           SKY/WX    TMP DP  RH WIND       PRES   REMARKS
Jones Beach      N/A     68 N/A N/A NW22G28     N/A
Matinecock PT  NOT AVBL
Farmingdale    CLEAR     67  53  61 NW9       29.76R
MacArthur/ISP  PTCLDY    65  57  75 N7        29.75R
Shirley        CLEAR     62  59  90 N5        29.75R
Mt Sinai Harb    N/A     59 N/A N/A N2          N/A
Westhampton    CLOUDY    63  57  81 N6        29.76R
East Hampton     N/A     59  57  92 NW3       29.73R
Montauk          N/A     58  57  97 CALM      29.73R
$$

NYZ052-065-067-270300-
HUDSON VALLEY

CITY           SKY/WX    TMP DP  RH WIND       PRES   REMARKS
White Plains   PTCLDY    65  52  62 NW13      29.76R
Larchmont Harb   N/A     66 N/A N/A W10G16      N/A
Croton O-T Hud   N/A     66 N/A N/A W10         N/A
Newburgh       MOCLDY    63  55  77 W9        29.78S
Montgomery     MOCLDY    64  53  67 NW6       29.78R
Poughkeepsie   CLOUDY    61  57  87 NW5       29.76R
Albany         DRIZZLE   56  53  90 NE8       29.78R
$$

NJZ001-105-106-008-010-013-015-019>022-104-270300-
NEW JERSEY

CITY           SKY/WX    TMP DP  RH WIND       PRES   REMARKS
Newark/Liberty MOCLDY    70  54  56 NW13      29.77R
Teterboro      CLOUDY    68  53  58 NW12G18   29.77R
Caldwell       MOCLDY    69  53  56 NW6       29.79R
Somerville     PTCLDY    63  56  78 CALM      29.78R
Linden           N/A     67  54  61 NW8       29.78R
Perth Amboy      N/A     66 N/A N/A NW8         N/A
Sussex         MOCLDY    64  53  67 VRB6      29.82R
Andover          N/A     63  53  70 CALM      29.81R
Trenton        CLEAR     66  54  65 NW9       29.80R
Millville      CLOUDY    67  57  70 W10       29.83R
Atlantic City  CLOUDY    69  55  60 W10       29.81R
Wrightstown    MOCLDY    66  54  65 W9        29.78R
Toms River     CLEAR     67  54  63 W8        29.80R
Belmar         NOT AVBL
$$

PAZ047>061-062-071-270300-
EASTERN PENNSYLVANIA

CITY           SKY/WX    TMP DP  RH WIND       PRES   REMARKS
Philadelphia   MOCLDY    70  53  54 W13       29.83R
Allentown      CLOUDY    64  55  72 NW7       29.84R
Scranton       CLOUDY    61  55  81 NW7       29.84R
$$

CTZ002-004>006-009-010-012-RIZ004-006-007-MAZ004-011-015-270300-
SOUTHERN NEW ENGLAND
 IN CT

CITY           SKY/WX    TMP DP  RH WIND       PRES   REMARKS
Bradley INTL   CLOUDY    60  53  77 NW9       29.74R
Hartford       CLOUDY    62  54  74 NW8G18    29.74R
Danbury        CLEAR     59  57  93 N6        29.77R
Wtrbury/Oxford   N/A     61  50  67 N6        29.77R
Bridgeport     PTCLDY    65  56  72 NW8       29.75R
Meriden        CLOUDY    62  53  72 NW8       29.74R
New Haven      CLOUDY    63  54  72 NW8       29.74R
Chester        CLOUDY    61  57  88 NW8       29.74R
Groton         CLOUDY    58  56  93 E5        29.72R
Wilimantic     CLOUDY    61  57  87 NW3       29.73R

 IN RI

CITY           SKY/WX    TMP DP  RH WIND       PRES   REMARKS
Providence     CLOUDY    59  59 100 W5        29.72R
Block Island   CLOUDY    57  56  96 CALM      29.73R
Westerly       CLOUDY    61  57  87 VRB3      29.73R
 IN MA

CITY           SKY/WX    TMP DP  RH WIND       PRES   REMARKS
Boston         CLOUDY    53  53 100 E5        29.72R
Worcester      CLOUDY    53  49  86 NW14      29.73R
Westfield      CLOUDY    58  53  84 NW10      29.74R
Provincetown   CLOUDY    51  49  92 CALM      29.72R
Nantucket      CLOUDY   N/A N/A N/A W6        29.70R
$$

ANZ330-335-338-340-345-350-353-355-270300-
COASTAL MARINE OBSERVATIONS


STATION/POSITION TIME  SKY/WX   TEMP    WIND        PRES    VSBY  WAVE
                                AIR SEA DIR/SP/G                  HT/PER
                 (UTC)          (F)     (DEG/KT/KT) (MB)    (MI)  (FT/S)
NY HARB ENTRANCE 0150            63 57  270/ 14/ 16 1007.4          4/ 8
20 S FIRE ISLAND 0150            60 56  280/ 12/ 16 1006.6          5/ 8
GREAT SOUTH BAY  0130            68 63  320/ 14/ 17   N/A
23 SSW MONTAUK P 0050            57 55              1005.6          6/ 8
15 E BARNEGAT LI 0100               58                N/A           5/ 8
HUDSON CANYON    0050            59 55  250/ 14/ 16 1006.2          6/ 9
KINGS POINT      0130            66 59  360/ 14/ 16 1007.4
EXECUTION ROCKS  0145            66                   N/A
CENTRAL LI SOUND NOT AVBL
EASTERN LI SOUND NOT AVBL
ROBBINS REEF     0130            70     330/ 11/ 16 1008.1
$$


>>>>>>>>>>>>>>>>>>>>>>>>>>>> KEY <<<<<<<<<<<<<<<<<<<<<<<<<<<
>                                                          <
>     SKY/WX - Sky Condition/Present Weather               <
>     TMP    - Temperature in Fahrenheit                   <
>     DP     - Dew Point in Fahrenheit                     <
>     RH     - Relative Humidity in Percent                <
>     WIND   - Direction (from) and Speed in MPH           <
>     PRES   - Mean Sea Level Pressure (inches of Hg)      <
>     WCI    - Wind Chill Index                            <
>     VSB    - VISIBILITY IN MILES                         <
>     HX     - HEAT INDEX                                  <
>     TC     - TEMPERATURE IN CELSIUS                      <
>     VRB    - VARIABLE WIND DIRECTION                     <
>                                                          <
>>>>>>>>>>>>>>>>>>>>>>>>>>>> KEY <<<<<<<<<<<<<<<<<<<<<<<<<<<




USA.gov is the U.S. government's official web portal to all federal, state and local government web resources and services.